Weather History for Stillwater, OK

Change the Weather History Date:

Monday, December 31, 2012

  Actual Average Record
Temperature  
Mean Temperature 37 °F -  
Max Temperature 39 °F 46 °F 72 °F (2004)
Min Temperature 35 °F 24 °F 6 °F (2000)
Degree Days  
Heating Degree Days 28    
Moisture  
Dew Point 36 °F    
Average Humidity 92    
Maximum Humidity 100    
Minimum Humidity 53    
Precipitation  
Precipitation 0.35 in - - ()
Sea Level Pressure  
Sea Level Pressure 30.04 in    
Wind  
Wind Speed 6 mph (SSE)    
Max Wind Speed 14 mph    
Max Gust Speed -    
Visibility 4 miles    
Events Rain    
Averages and records for this station are not official NWS values.
T = Trace of Precipitation, MM = Missing Value Source: NWS Daily Summary

Daily Weather History Graph

Daily Weather History Graph

Search for Another Location

Airport:

Trip Planner

Search our weather history database for the weather conditions in past years. The results will help you decide how hot, cold, wet, or windy it might be!

Date:

Astronomy

Dec. 31, 2012 Rise Set
Actual Time 7:39 AM CST 5:24 PM CST
Civil Twilight 7:10 AM CST 5:52 PM CST
Nautical Twilight 6:38 AM CST 6:24 PM CST
Astronomical Twilight 6:07 AM CST 6:56 PM CST
Moon 8:49 PM CST (12/31) 9:27 AM CST (12/31)
Length of Visible Light 10h 41m
Length of Day
9h 44m
Waning Gibbous, 90% of the Moon is Illuminated
Dec 31
Waning Gibbous
Jan 4
Last Quarter
Jan 11
New
Jan 18
First Quarter
Jan 26
Full

Hourly Weather History & Observations

Time (CST) Temp. Windchill Dew Point Humidity Pressure Visibility Wind Dir Wind Speed Gust Speed Precip Events Conditions
12:53 AM 39.9 °F 34.5 °F 24.1 °F 53% 30.14 in 10.0 mi South 8.1 mph - N/A   Mostly Cloudy
1:53 AM 39.9 °F 32.1 °F 27.0 °F 60% 30.14 in 10.0 mi SSW 13.8 mph - N/A   Partly Cloudy
2:53 AM 39.0 °F 33.4 °F 30.0 °F 70% 30.13 in 10.0 mi South 8.1 mph - 0.00 in Rain Light Rain
3:53 AM 37.0 °F 32.4 °F 34.0 °F 89% 30.13 in 10.0 mi SSE 5.8 mph - 0.02 in Rain Light Rain
4:53 AM 37.0 °F 33.3 °F 35.1 °F 93% 30.12 in 5.0 mi SE 4.6 mph - 0.07 in Rain Rain
5:00 AM 37.4 °F 34.9 °F 35.6 °F 93% 30.11 in 5.0 mi SE 3.5 mph - 0.01 in Rain Rain
5:53 AM 37.0 °F 32.4 °F 35.1 °F 93% 30.09 in 4.0 mi SE 5.8 mph - 0.08 in Rain Light Rain
6:20 AM 37.4 °F 31.4 °F 35.6 °F 93% 30.07 in 5.0 mi SE 8.1 mph - 0.02 in Rain Light Rain
6:53 AM 37.0 °F 30.4 °F 35.1 °F 93% 30.06 in 5.0 mi SE 9.2 mph - 0.05 in Rain Rain
7:03 AM 37.4 °F 30.3 °F 35.6 °F 93% 30.06 in 5.0 mi SSE 10.4 mph - 0.01 in Rain Rain
7:53 AM 37.0 °F 31.0 °F 35.1 °F 93% 30.07 in 5.0 mi SSE 8.1 mph - 0.06 in Rain Light Rain
8:53 AM 36.0 °F 29.6 °F 34.0 °F 93% 30.08 in 6.0 mi SSE 8.1 mph - 0.06 in Rain Light Rain
9:53 AM 36.0 °F 30.3 °F 35.1 °F 97% 30.09 in 4.0 mi SSE 6.9 mph - 0.00 in   Overcast
10:45 AM 35.6 °F 29.2 °F 35.6 °F 100% 30.07 in 2.0 mi SSE 8.1 mph - 0.00 in   Overcast
10:53 AM 36.0 °F 31.1 °F 35.1 °F 97% 30.08 in 2.0 mi SSE 5.8 mph - 0.00 in   Overcast
11:30 AM 35.6 °F 29.2 °F 35.6 °F 100% 30.05 in 2.5 mi SSE 8.1 mph - 0.00 in   Overcast
11:53 AM 37.0 °F 31.6 °F 35.1 °F 93% 30.04 in 2.0 mi SE 6.9 mph - 0.00 in   Overcast
12:53 PM 37.0 °F 33.3 °F 36.0 °F 96% 29.99 in 3.0 mi SSE 4.6 mph - N/A   Overcast
1:53 PM 37.9 °F 32.7 °F 36.0 °F 93% 29.96 in 6.0 mi SSE 6.9 mph - N/A   Overcast
2:53 PM 37.9 °F 34.4 °F 37.0 °F 97% 29.96 in 4.0 mi SSE 4.6 mph - N/A   Overcast
3:13 PM 39.2 °F 34.2 °F 37.4 °F 93% 29.95 in 2.5 mi SSE 6.9 mph - N/A   Overcast
3:36 PM 39.2 °F 35.0 °F 37.4 °F 93% 29.96 in 4.0 mi South 5.8 mph - N/A   Overcast
3:53 PM 39.0 °F 35.7 °F 37.0 °F 93% 29.98 in 3.0 mi SSW 4.6 mph - N/A   Overcast
4:19 PM 39.2 °F 37.0 °F 37.4 °F 93% 29.97 in 2.0 mi SSW 3.5 mph - N/A   Overcast
4:32 PM 39.2 °F - 37.4 °F 93% 29.97 in 1.5 mi Calm Calm - N/A   Overcast
5:04 PM 39.2 °F - 37.4 °F 93% 29.97 in 2.5 mi Calm Calm - N/A   Overcast
5:18 PM 39.2 °F - 37.4 °F 93% 29.98 in 3.0 mi Calm Calm - N/A   Overcast
5:51 PM 39.2 °F - 37.4 °F 93% 29.99 in 2.5 mi Calm Calm - N/A   Overcast
5:53 PM 39.0 °F - 37.9 °F 96% 30.00 in 2.5 mi Calm Calm - N/A   Overcast
6:53 PM 39.0 °F - 37.9 °F 96% 30.02 in 2.5 mi Calm Calm - N/A   Overcast
7:12 PM 39.2 °F - 37.4 °F 93% 30.01 in 1.8 mi Calm Calm - N/A   Overcast
7:22 PM 39.2 °F - 37.4 °F 93% 30.01 in 2.0 mi Calm Calm - N/A   Overcast
7:53 PM 39.0 °F - 37.9 °F 96% 30.04 in 2.0 mi Calm Calm - N/A   Overcast
8:27 PM 39.2 °F - 37.4 °F 93% 30.03 in 2.5 mi Calm Calm - 0.01 in   Overcast
8:37 PM 39.2 °F - 37.4 °F 93% 30.03 in 3.0 mi Calm Calm - 0.01 in   Overcast
8:53 PM 39.0 °F - 37.9 °F 96% 30.05 in 4.0 mi Calm Calm - 0.01 in   Overcast
9:00 PM 39.2 °F - 37.4 °F 93% 30.04 in 4.0 mi Calm Calm - N/A   Overcast
9:53 PM 39.0 °F - 37.9 °F 96% 30.06 in 5.0 mi Calm Calm - N/A   Overcast
10:53 PM 39.0 °F 35.7 °F 37.0 °F 93% 30.09 in 5.0 mi NW 4.6 mph - N/A   Overcast
11:06 PM 39.2 °F - 37.4 °F 93% 30.08 in 5.0 mi Calm Calm - N/A   Overcast
11:49 PM 37.4 °F 33.8 °F 37.4 °F 100% 30.08 in 2.0 mi North 4.6 mph - N/A   Overcast
11:53 PM 37.9 °F 33.5 °F 37.0 °F 97% 30.09 in 1.8 mi North 5.8 mph - N/A   Overcast